Location: C�mpuri de-Sus
(45.9500°N, 22.5500°E)
Time: 04:06:40
(UTC+00:00)

Cosmos 839 Rocket - Pass Details

Date: 02 June 2022
Orbit: 968 x 2085 km, 65.9° (Epoch: 06 July)

Event Time Altitude Azimuth Distance (km) Brightness Sun altitude
Rises 23:01:51 0° 317° (NW) 3,741 7.6 -21.3°
Reaches altitude 10° 23:04:33 10° 307° (NW) 2,857 6.8 -21.3°
Maximum altitude 23:10:16 32° 248° (WSW) 1,891 5.2 -21.1°
Enters shadow 23:11:59 28° 224° (SW) 2,065 5.2 -21.0°
